Weather in Zolotovo

Russia / Pskov Oblast     56°44′13″N   28°19′26″E
temp.,
°C
wind,
m/s
gust,
m/s
humid.,
%
clouds,
%
prec.,
mm/h
press.,
hPa
HPBL,
m
9 march, tue
tue900:00−9nnw288945 0.0 1017354
03:00−10nnw269023 0.0 1019270
06:00−11nw259410 0.0 1020150
09:00−10wnw248718 0.0 1021204
12:00−5nw236154 0.0 1021719
15:00−3wsw235263 0.0 10211051
18:00−4sw2573100 0.0 1020739
21:00−4sw3970100 0.1 1021639
10 march, wed
wed1000:00−3wsw51280100 0.0 1020684
03:00−4w3975100 0.0 1021503
06:00−5w2785100 0.2 1021402
09:00−7ene3588100 0.7 1023247
12:00−6e4685100 0.4 1024399
15:00−5ese4780100 0.7 1024560
18:00−6ese4886100 0.2 1025508
21:00−8ese4989100 0.4 1026454
11 march, thu
thu1100:00−9se4886100 0.1 1026421
03:00−9se4888100 0.1 1026379
06:00−10sse489098 0.0 1026326
09:00−10sse488795 0.0 1026309
12:00−5sse487046 0.0 1024480
15:00−1s585722 0.0 10231069
18:00−2sse596667 0.0 10201099
21:00−4sse6138083 0.0 1018856
12 march, fri
fri1200:00−4sse71480100 0.0 1016960
03:00−5sse71481100 0.1 1015928
06:00−6sse71578100 0.0 1012968
09:00−5sse81580100 0.1 1009866
12:00−4sse81486100 0.7 10071028
15:00−2sse71284100 1.1 1005997
18:00−2s51094100 0.4 1004717
21:00−2s3995100 0.8 1004449
13 march, sat
sat1300:00−2s3798100 0.4 1005255
03:00−1sw2896100 0.5 1005214
06:00+1sw3109196 0.0 1006605
09:000ssw4109293 0.0 1007466
12:00+2s5986100 0.0 1007605
15:00+2s51088100 0.0 1006652
18:00+3s51285100 0.0 1005870
21:00+2sw41097100 0.9 1004550